EHI
0 0 0 0 0 0 0 0 0 0 0 0 0 1 1 1 0 0 0 0 0 0 0 0 1 2 2 1 0 0 0 0 0 0 0 0 0 0 0 0 0 0 0
0 0 0 0 0 0 0 0 0 0 0 0 0 0 0 0 0 0 0 0 0 0 0 0 0 1 1 0 0 0 0 0 0 0 0 0 0 0 0 0 0 0 0
0 0 0 0 0 0 0 0 0 0 0 0 0 0 0 0 0 0 0 0 0 0 0 0 0 0 0 0 0 0 0 0 0 0 0 0 0 0 0 0 0 0 0
0 0 0 0 0 0 0 0 0 0 0 0 0 0 0 0 0 0 0 0 0 0 0 0 0 0 0 0 0 0 0 0 0 0 0 0 0 0 0 0 0 0 0
0 0 0 0 0 0 0 0 0 0 0 0 0 0 0 0 0 0 0 0 0 0 0 0 0 0 0 0 0 0 0 0 0 0 0 0 0 0 0 0 0 0 0
0 0 0 0 0 0 0 0 0 0 0 0 0 0 0 0 0 0 0 0 0 0 0 0 0 0 0 0 0 0 0 0 0 0 0 0 0 0 0 0 0 0 0
0 0 0 0 0 0 0 0 0 0 0 0 0 0 0 0 0 0 0 0 0 0 0 0 0 0 0 0 0 0 0 0 0 0 0 0 0 0 0 0 0 0 0
0 0 0 0 0 0 0 0 0 0 0 0 0 0 0 0 0 0 0 0 0 0 0 0 0 0 0 0 0 0 0 0 0 0 0 0 0 0 0 0 0 0 0
0 0 0 0 0 0 0 0 0 0 0 0 0 0 0 0 0 0 0 0 0 0 0 0 0 0 0 0 0 0 0 0 0 0 0 0 0 0 0 0 0 0 0
0 0 0 0 0 0 0 0 0 0 0 0 0 0 0 0 0 0 0 0 0 0 0 0 0 0 0 0 0 0 0 0 0 0 0 0 0 0 0 0 0 0 0
0 0 0 0 0 0 0 0 0 0 0 0 0 0 0 0 0 0 0 0 0 0 0 0 0 0 0 0 0 0 0 0 0 0 0 0 0 0 0 0 0 0 0
0 0 0 0 0 0 0 0 0 0 0 0 0 0 0 0 0 0 0 0 0 0 0 0 0 0 0 0 0 0 0 0 0 0 0 0 0 0 0 0 0 0 0
0 0 0 0 0 0 0 0 0 0 0 0 0 0 0 0 0 0 0 0 0 0 0 0 0 0 0 0 0 0 0 0 0 0 0 0 0 0 0 0 0 0 0
0 0 0 0 0 0 0 0 0 0 0 0 0 0 0 0 0 0 0 0 0 0 0 0 0 0 0 0 0 0 0 0 0 0 0 0 0 0 0 0 0 0 0
0 0 0 0 0 0 0 0 0 0 0 0 0 0 0 0 0 0 0 0 0 0 0 0 0 0 0 0 0 0 0 0 0 0 0 0 0 0 0 0 0 0 0
0 0 0 0 0 0 0 0 0 0 0 0 0 0 0 0 0 0 0 0 0 0 0 0 0 0 0 0 0 0 0 0 0 0 0 0 0 0 0 0 0 0 0
0 0 0 0 0 0 0 0 0 0 0 0 0 0 0 0 0 0 0 0 0 0 0 0 0 0 0 0 0 0 0 0 0 0 0 0 0 0 0 0 0 0 0
0 0 0 0 0 0 0 0 0 0 0 0 0 0 0 0 0 0 0 0 0 0 0 0 0 0 0 0 0 0 0 0 0 0 0 0 0 0 0 0 0 0 0
0 0 0 0 0 0 0 0 0 0 0 0 0 0 0 0 0 0 0 0 0 0 0 0 0 0 0 0 0 0 0 0 0 0 0 0 0 0 0 0 0 0 0
0 0 0 0 0 0 0 0 0 0 0 0 0 0 0 0 0 0 0 0 0 0 0 0 0 0 0 0 0 0 0 0 0 0 0 0 0 0 0 0 0 0 0
0 0 0 0 0 0 0 0 0 0 0 0 0 0 0 0 0 0 0 0 0 0 0 0 0 0 0 0 0 0 0 0 0 0 0 0 0 0 0 0 0 0 0
0 0 0 0 0 0 0 0 0 0 0 0 0 0 0 0 0 0 0 0 0 0 0 0 0 0 0 0 0 0 0 0 0 0 0 0 0 0 0 0 0 0 0
0 0 0 0 0 0 0 0 0 0 0 0 0 0 0 0 0 0 0 0 0 0 0 0 0 0 0 0 0 0 0 0 0 0 0 0 0 0 0 0 0 0 0
0 0 0 0 0 0 0 0 0 0 0 0 0 0 0 0 0 0 0 0 0 0 0 0 0 0 0 0 0 0 0 0 0 0 0 0 0 0 0 0 0 0 0
0 0 0 0 0 0 0 0 0 0 0 0 0 0 0 0 0 0 0 0 0 0 0 0 0 0 0 0 0 0 0 0 0 0 0 0 0 0 0 0 0 0 0
0 0 0 0 0 0 0 0 0 0 0 0 0 0 0 0 0 0 0 0 0 0 0 0 0 0 0 0 0 0 0 0 0 0 0 0 0 0 0 0 0 0 0
Wind_Speed
4 4 3 3 2 2 2 2 1 2 2 2 3 3 3 3 2 1 0 2 2 2 2 2 2 2 2 3 3 4 4 5 5 5 6 6 7 7 8 8 9 9 9
4 4 4 3 3 3 3 3 2 2 1 2 2 3 3 3 2 2 0 1 2 2 2 2 1 1 2 3 3 3 4 4 5 5 6 6 7 8 8 8 9 9 10
5 4 4 4 3 3 3 2 2 1 1 1 2 2 3 3 3 2 1 1 0 0 1 1 1 1 1 2 3 3 4 4 5 5 6 7 7 8 9 9 9 10 10
5 4 4 3 3 3 3 3 2 2 1 1 1 1 1 2 2 2 2 1 1 1 1 1 0 0 1 2 2 3 3 4 5 6 7 7 8 8 9 9 10 10 11
4 4 3 3 4 3 3 3 2 2 2 2 1 1 1 1 2 2 2 2 2 1 1 1 0 0 1 2 2 3 4 5 5 6 6 7 8 8 9 10 10 11 11
4 4 3 3 3 3 3 3 3 2 2 2 1 1 0 1 1 2 2 2 2 2 2 1 1 1 1 3 3 4 4 5 5 6 7 7 8 9 9 10 10 11 12
3 4 3 3 3 3 4 4 3 3 1 1 1 0 1 1 1 2 2 2 2 2 2 2 2 1 1 3 4 4 5 6 6 6 7 7 8 9 10 10 11 11 12
3 4 4 4 3 3 4 5 4 3 2 2 3 2 0 1 1 1 1 2 2 1 2 2 2 2 1 1 2 4 5 6 6 7 7 8 9 9 10 10 11 12 12
3 3 4 3 3 4 4 5 6 5 4 2 2 3 3 3 1 1 1 2 2 1 1 1 2 2 1 1 1 3 5 6 7 8 8 9 9 10 10 11 11 12 12
2 3 3 3 3 3 4 5 4 4 5 4 2 2 2 3 2 1 1 1 2 2 2 2 1 1 1 1 1 2 5 6 7 8 9 10 10 10 11 11 12 12 12
2 3 3 3 3 3 4 4 4 4 4 5 4 2 2 1 2 2 2 1 1 1 2 2 2 1 1 1 1 2 5 7 8 9 9 10 11 11 11 12 12 12 12
1 2 2 3 3 3 3 3 3 4 4 4 3 3 3 3 3 2 2 2 2 1 1 1 1 1 1 1 1 3 5 7 8 9 9 10 10 11 11 12 12 12 13
1 2 2 3 3 3 3 3 3 3 4 4 4 3 2 2 2 2 3 2 1 1 1 1 1 1 1 1 1 4 5 7 8 9 9 10 10 10 11 11 12 12 13
3 3 3 3 3 3 3 3 2 3 3 4 4 3 2 2 2 3 3 3 1 1 1 2 1 1 1 1 1 3 3 6 8 8 9 9 9 10 11 11 12 12 13
2 3 3 3 3 3 3 3 3 3 4 3 3 3 3 2 2 2 2 3 4 2 2 2 1 1 1 1 2 1 2 5 7 8 8 8 8 9 10 11 11 12 11
2 2 3 3 3 3 3 3 3 3 3 3 3 3 3 2 2 2 2 2 2 3 3 2 2 2 1 1 3 2 2 6 7 8 8 8 9 9 10 11 10 11 11
2 3 3 3 3 4 4 3 3 4 4 3 3 3 3 2 2 2 2 2 2 2 2 2 1 1 2 2 2 2 2 2 3 7 8 8 9 9 10 10 10 11 11
2 2 2 2 3 4 4 4 4 4 4 4 3 3 3 2 2 2 2 2 2 2 3 2 2 1 2 2 2 2 3 3 3 6 8 8 9 9 9 9 10 10 10
1 1 1 2 2 3 4 4 4 4 4 4 4 4 3 3 2 2 3 3 2 1 2 2 2 2 1 1 1 2 3 3 3 5 6 7 7 8 9 9 9 10 10
1 1 1 1 2 2 3 3 3 3 3 3 3 3 3 4 4 4 3 3 3 2 2 2 2 1 1 1 1 1 3 2 3 3 5 6 7 8 9 9 9 10 10
1 1 1 1 1 1 2 3 3 3 3 2 2 2 3 3 4 4 3 3 4 3 2 2 2 1 2 2 2 1 2 3 3 3 3 3 4 3 4 7 8 9 10
1 1 1 1 1 1 1 3 3 3 3 3 2 2 2 3 3 4 4 4 4 4 4 3 2 3 3 3 2 2 2 2 3 2 2 4 2 3 4 3 7 10 10
1 1 1 1 1 1 1 2 3 3 3 3 3 2 2 2 2 2 2 2 3 4 5 4 4 4 4 3 3 2 3 3 3 3 3 4 3 4 4 5 9 10 10
1 1 1 1 1 1 1 1 2 2 2 3 3 3 3 3 3 2 2 1 1 2 3 3 3 4 3 3 3 3 2 2 2 2 2 3 3 4 5 4 8 9 10
1 1 1 1 1 1 1 1 1 2 2 2 2 2 3 3 4 3 2 2 0 1 2 2 2 2 2 2 2 1 1 1 3 3 1 1 2 3 4 4 5 8 10
1 1 1 1 1 1 2 1 1 1 2 1 1 2 3 3 4 4 3 3 2 2 1 1 1 1 0 1 2 1 2 2 2 2 1 1 2 2 3 3 2 3 5
Wind_Direction
162 160 153 156 159 154 152 151 152 156 150 155 152 144 144 137 135 123 69 103 105 118 139 137 118 91 68 52 45 41 31 23 18 9 5 0 353 348 344 343 341 337 333
163 163 157 165 169 164 161 160 161 160 165 157 156 154 152 147 142 151 124 102 93 107 142 149 133 93 61 49 45 36 27 12 6 0 356 354 352 347 342 339 336 335 333
163 167 167 172 175 161 154 147 143 137 153 150 153 160 154 152 155 165 162 168 187 123 158 166 145 97 47 33 31 25 16 3 358 353 352 350 346 343 340 337 334 332 330
167 164 171 175 170 159 156 155 155 145 160 159 166 169 153 155 167 175 171 179 187 211 240 197 175 89 32 20 16 10 2 355 352 351 350 347 344 340 338 336 332 329 328
168 161 172 174 168 161 163 170 162 157 162 164 171 166 157 166 183 179 179 186 185 186 206 217 205 4 359 359 351 350 348 348 345 344 341 338 337 335 334 332 330 330 329
171 161 163 171 169 166 171 170 163 152 163 173 160 148 183 212 200 196 193 188 183 185 187 186 195 273 340 343 342 338 337 337 335 335 333 332 332 331 331 330 329 329 328
172 165 165 168 176 182 181 168 159 152 167 159 128 85 339 278 223 217 202 187 183 192 184 180 183 192 267 324 330 333 332 329 327 326 328 330 328 327 328 330 330 329 328
178 175 170 172 175 174 177 174 169 166 184 182 159 147 198 304 280 237 210 198 192 193 188 180 178 185 194 246 307 326 326 324 321 323 327 326 324 326 328 329 330 330 328
181 173 173 173 175 178 185 188 180 178 187 208 190 164 166 212 252 280 232 213 192 188 205 194 187 189 201 218 265 316 332 328 323 324 324 324 324 325 326 328 330 331 329
176 175 174 177 181 185 191 194 189 186 179 191 204 205 176 157 160 240 290 265 221 199 213 209 190 197 197 202 272 326 338 332 330 329 329 328 327 326 328 329 330 331 330
181 180 178 180 186 192 196 193 182 187 188 188 188 178 162 131 157 170 229 263 294 242 221 209 197 203 196 191 237 317 342 339 335 333 331 329 328 328 329 330 329 329 328
193 190 183 186 192 196 197 194 194 192 191 185 184 176 172 171 179 174 198 217 246 270 252 229 206 201 190 185 274 335 339 339 338 335 332 330 328 327 327 328 327 326 327
216 217 207 197 198 202 204 196 191 198 189 179 181 183 186 192 177 167 166 192 236 287 308 280 227 185 179 173 272 325 330 333 335 333 330 328 327 327 326 325 325 324 326
215 214 215 210 203 200 201 198 199 207 192 186 187 182 182 195 179 174 169 162 171 295 286 261 273 202 192 202 267 319 311 322 328 326 328 330 329 326 324 325 324 324 325
227 212 212 217 208 200 198 199 210 209 189 189 188 186 185 192 175 180 176 171 163 197 248 250 247 230 222 225 276 282 283 308 320 322 326 328 327 325 326 326 324 325 329
236 220 216 218 214 203 197 198 216 205 185 188 185 184 189 185 174 174 185 186 173 175 221 248 251 247 256 280 291 295 284 308 315 317 319 321 321 323 326 324 324 327 329
227 226 222 215 216 208 199 200 212 193 184 182 181 183 191 180 176 178 180 180 178 168 203 268 269 257 253 257 287 290 289 284 293 310 314 314 318 322 321 324 327 327 328
229 233 229 218 220 212 200 203 210 197 190 187 188 183 192 173 175 186 183 186 187 185 178 228 271 261 250 244 261 284 299 300 293 305 311 313 317 321 324 326 326 328 329
266 255 235 235 228 216 206 210 207 200 195 192 190 190 189 170 188 192 189 192 191 186 175 193 250 267 274 258 285 298 299 297 300 309 319 319 320 322 324 324 327 329 330
273 260 266 262 248 229 213 208 197 196 193 197 195 192 192 191 198 197 197 196 182 176 176 193 229 254 272 266 258 290 312 313 313 314 314 315 316 320 323 327 328 329 329
295 264 270 295 275 247 218 196 190 190 188 193 194 196 203 207 206 204 204 198 185 182 184 199 227 252 263 259 260 268 291 308 308 298 305 308 312 314 316 320 323 325 326
326 309 279 286 279 268 234 196 189 186 183 185 193 196 211 200 204 219 225 221 204 191 195 204 224 233 246 249 254 257 279 302 301 307 312 302 306 303 305 303 316 322 324
350 339 315 295 285 294 271 202 190 183 179 187 192 188 203 208 203 201 222 249 250 249 227 209 217 230 231 231 233 255 268 279 281 291 302 292 298 296 299 307 317 322 326
339 317 319 312 314 304 310 172 173 184 182 194 199 195 196 205 205 186 186 208 254 273 260 238 217 228 230 226 225 241 257 293 299 289 282 286 297 294 300 302 310 319 325
333 321 324 324 318 309 323 227 171 172 180 200 207 199 196 202 206 186 172 178 233 304 319 292 277 259 253 247 233 181 233 293 305 298 272 267 292 302 295 291 306 321 327
337 327 333 333 307 287 321 282 201 168 174 195 203 207 209 205 199 191 183 179 204 246 245 13 7 6 352 229 286 228 205 236 283 283 253 269 293 320 310 294 301 315 323